User: anonymous   Login
Location: Unspecified
(0.0000°N, 0.0000°E)
Time: 04:31:04
(UTC+00:00)
Language:

YAOGAN-33 02 - Orbit

View from above orbital plane
View from above orbital plane
View from above satellite
View from above satellite

Ground track
Ground track

The orbit is defined by the following mean orbital elements,

1 53698U          26145.62838057 +.00000000 +00000-0 +36281-4 0 00005
2 53698  98.1811 153.8298 0001241 179.9654 180.1546 14.58716238    06
Epoch (UTC): 25 May 2026 15:04:52
Eccentricity: 0.0001241
inclination: 98.1811°
perigee height: 696 km
apogee height: 698 km
right ascension of ascending node: 153.8298°
argument of perigee: 179.9654°
revolutions per day: 14.58716238
mean anomaly at epoch: 180.1546°

The dashed part of the orbit path shows where the satellite is in the earth's shadow,  

DLR